DW4248 Weather Reports


Display with metric or nautical units.
time (UTC)temp
F
wind
direction
speed
MPH
gust
MPH
rain 1hr
in
rain 24hr
in
rain mn
in
humidity
%
barometer
mb
20260507195403 68 313 2.0 10.0 0.00 0.00 0.00 37 1014.5
20260507194503 67 326 2.0 8.0 0.00 0.00 0.00 37 1014.6
20260507193603 68 209 1.0 8.0 0.00 0.00 0.00 40 1014.7
20260507192703 67 195 1.0 7.0 0.00 0.00 0.00 40 1014.8
20260507191803 67 10 2.0 8.0 0.00 0.00 0.00 41 1014.9
20260507190903 66 341 2.0 14.0 0.00 0.00 0.00 39 1015.0
20260507190004 66 352 3.0 13.0 0.00 0.00 0.00 40 1015.2
20260507185424 66 337 3.0 13.0 0.00 0.00 0.00 38 1015.2
20260507184503 66 91 2.0 16.0 0.00 0.00 0.00 41 1015.3
20260507183603 66 308 1.0 5.0 0.00 0.00 0.00 41 1015.3
20260507182703 66 332 2.0 9.0 0.00 0.00 0.00 40 1015.4
20260507181803 66 243 1.0 8.0 0.00 0.00 0.00 42 1015.5
20260507180903 65 308 2.0 9.0 0.00 0.00 0.00 39 1015.7
20260507180003 65 315 1.0 6.0 0.00 0.00 0.00 41 1015.8
20260507175403 64 332 1.0 9.0 0.00 0.00 0.00 43 1015.8
20260507174503 64 146 1.0 9.0 0.00 0.00 0.00 42 1015.8
20260507173603 63 332 1.0 8.0 0.00 0.00 0.00 43 1016.1
20260507172703 63 334 2.0 11.0 0.00 0.00 0.00 42 1016.1
20260507171803 63 336 2.0 10.0 0.00 0.00 0.00 42 1016.2
20260507170903 63 340 1.0 6.0 0.00 0.00 0.00 45 1016.4
20260507170003 63 111 2.0 8.0 0.00 0.00 0.00 46 1016.7
20260507165403 62 16 1.0 6.0 0.00 0.00 0.00 44 1016.6
20260507164524 62 152 1.0 9.0 0.00 0.00 0.00 42 1016.9
20260507163603 62 91 2.0 7.0 0.00 0.00 0.00 41 1016.9
20260507162703 62 166 1.0 5.0 0.00 0.00 0.00 47 1016.9
20260507160903 61 153 1.0 6.0 0.00 0.00 0.00 49 1017.1
20260507160003 60 159 1.0 6.0 0.00 0.00 0.00 47 1017.2
20260507155403 60 143 1.0 8.0 0.00 0.00 0.00 46 1017.3
20260507154503 60 306 1.0 8.0 0.00 0.00 0.00 48 1017.4
20260507153624 59 142 1.0 4.0 0.00 0.00 0.00 53 1017.4
20260507152703 59 135 1.0 6.0 0.00 0.00 0.00 50 1017.4
20260507151803 58 147 1.0 4.0 0.00 0.00 0.00 52 1017.5
20260507150903 58 144 1.0 7.0 0.00 0.00 0.00 51 1017.6
20260507150004 58 151 0.0 2.0 0.00 0.00 0.00 54 1017.7
20260507145403 57 184 0.0 2.0 0.00 0.00 0.00 54 1017.7
20260507144503 57 144 0.0 1.0 0.00 0.00 0.00 56 1017.9
20260507143603 56 142 0.0 4.0 0.00 0.00 0.00 57 1018.0
20260507142703 55 144 0.0 2.0 0.00 0.00 0.00 59 1018.0
20260507141803 55 144 0.0 4.0 0.00 0.00 0.00 60 1018.1
20260507140903 54 156 0.0 2.0 0.00 0.00 0.00 64 1018.1
20260507140025 53 195 0.0 1.0 0.00 0.00 0.00 65 1018.0
20260507135403 52 127 0.0 1.0 0.00 0.00 0.00 72 1018.0
20260507134503 52 136 0.0 1.0 0.00 0.00 0.00 73 1018.0
20260507133603 50 131 0.0 1.0 0.00 0.00 0.00 75 1018.0
20260507132703 50 134 0.0 2.0 0.00 0.00 0.00 77 1018.0
20260507131803 48 159 0.0 1.0 0.00 0.00 0.00 82 1018.0
20260507130903 47 181 0.0 1.0 0.00 0.00 0.00 87 1018.1
20260507130004 46 0 0.0 0.0 0.00 0.00 0.00 90 1018.0
20260507125403 46 0 0.0 0.0 0.00 0.00 0.00 90 1018.0
20260507124503 45 127 0.0 1.0 0.00 0.00 0.00 91 1018.0
20260507123603 44 0 0.0 0.0 0.00 0.00 0.00 92 1017.9
20260507122705 44 54 0.0 1.0 0.00 0.00 0.00 92 1017.8
20260507121824 43 0 0.0 0.0 0.00 0.00 0.00 93 1017.7
20260507120903 42 0 0.0 0.0 0.00 0.00 0.00 94 1017.7
20260507120004 42 0 0.0 0.0 0.00 0.00 0.00 94 1017.6
20260507115403 42 0 0.0 0.0 0.00 0.00 0.00 94 1017.6
20260507114503 41 0 0.0 0.0 0.00 0.00 0.00 94 1017.5
20260507113603 41 0 0.0 0.0 0.00 0.00 0.00 94 1017.5
20260507112703 40 0 0.0 0.0 0.00 0.00 0.00 94 1017.4
20260507111803 40 0 0.0 0.0 0.00 0.00 0.00 94 1017.4
20260507110903 40 0 0.0 0.0 0.00 0.00 0.00 94 1017.2
20260507110003 40 0 0.0 0.0 0.00 0.00 0.00 93 1017.2
20260507105403 40 0 0.0 0.0 0.00 0.00 0.00 93 1017.1
20260507104503 41 0 0.0 0.0 0.00 0.00 0.00 93 1017.0
20260507103603 41 0 0.0 0.0 0.00 0.00 0.00 93 1017.1
20260507102703 41 0 0.0 0.0 0.00 0.00 0.00 94 1017.0
20260507101803 41 0 0.0 0.0 0.00 0.00 0.00 94 1017.0
20260507100903 41 0 0.0 0.0 0.00 0.00 0.00 94 1017.1
20260507100003 41 0 0.0 0.0 0.00 0.01 0.00 94 1017.1
20260507095403 41 0 0.0 0.0 0.00 0.01 0.00 94 1017.0
20260507094503 41 0 0.0 0.0 0.00 0.01 0.00 94 1017.0
20260507093603 41 0 0.0 0.0 0.00 0.02 0.00 94 1017.0
20260507092703 41 0 0.0 0.0 0.00 0.02 0.00 94 1016.9
20260507091803 41 0 0.0 0.0 0.00 0.02 0.00 94 1016.9
20260507090903 40 0 0.0 0.0 0.00 0.02 0.00 94 1017.1
20260507090004 40 0 0.0 0.0 0.00 0.02 0.00 93 1017.0
20260507085403 40 0 0.0 0.0 0.00 0.02 0.00 93 1017.2
20260507084524 40 0 0.0 0.0 0.00 0.02 0.00 93 1017.2
20260507083603 40 0 0.0 0.0 0.00 0.02 0.00 93 1017.2
20260507082703 40 0 0.0 0.0 0.00 0.03 0.00 93 1017.4
20260507081803 40 0 0.0 0.0 0.00 0.03 0.00 93 1017.4
20260507080903 40 0 0.0 0.0 0.00 0.03 0.00 93 1017.5
20260507080024 41 0 0.0 0.0 0.00 0.03 0.00 92 1017.6
20260507075403 41 0 0.0 0.0 0.00 0.03 0.00 92 1017.5
20260507074503 41 0 0.0 0.0 0.00 0.03 0.00 93 1017.5
20260507073603 41 0 0.0 0.0 0.00 0.03 0.00 92 1017.3
20260507072703 42 0 0.0 0.0 0.00 0.03 0.00 92 1017.3
20260507071803 42 0 0.0 0.0 0.00 0.03 0.00 93 1017.4
20260507070903 42 0 0.0 0.0 0.00 0.03 0.00 92 1017.3
20260507070007 42 0 0.0 0.0 0.00 0.04 0.00 92 1017.3
20260507065424 42 0 0.0 0.0 0.00 0.04 0.00 92 1017.4
20260507064503 42 0 0.0 0.0 0.00 0.04 0.00 92 1017.5
20260507063603 42 0 0.0 0.0 0.00 0.04 0.00 91 1017.5
20260507062724 42 0 0.0 0.0 0.00 0.04 0.00 91 1017.5
20260507061803 42 0 0.0 0.0 0.00 0.04 0.00 91 1017.6
20260507060903 42 0 0.0 0.0 0.00 0.04 0.00 91 1017.6
20260507060003 43 0 0.0 0.0 0.00 0.05 0.00 91 1017.6
20260507055403 43 0 0.0 0.0 0.00 0.06 0.00 91 1017.5
20260507054503 43 0 0.0 0.0 0.00 0.07 0.00 90 1017.5
20260507053603 43 0 0.0 0.0 0.00 0.07 0.00 90 1017.5
20260507052703 44 0 0.0 0.0 0.00 0.07 0.00 90 1017.5
20260507051803 44 0 0.0 0.0 0.00 0.07 0.00 89 1017.5
20260507050903 44 0 0.0 0.0 0.00 0.08 0.00 89 1017.3
20260507050004 44 0 0.0 0.0 0.00 0.08 0.00 89 1017.2
20260507045403 44 0 0.0 0.0 0.00 0.08 0.08 89 1017.1
20260507044503 44 0 0.0 0.0 0.00 0.08 0.08 88 1017.2
20260507043603 45 0 0.0 0.0 0.00 0.08 0.08 87 1017.2
20260507042724 45 0 0.0 0.0 0.00 0.08 0.08 86 1017.2
20260507041803 45 0 0.0 0.0 0.00 0.09 0.08 85 1017.2
20260507040903 46 0 0.0 0.0 0.00 0.09 0.08 84 1017.2
20260507040024 46 0 0.0 0.0 0.00 0.10 0.08 83 1017.1
20260507035403 46 0 0.0 0.0 0.00 0.10 0.08 83 1017.1
20260507034503 47 0 0.0 0.0 0.00 0.10 0.08 82 1017.1
20260507033603 47 0 0.0 0.0 0.00 0.10 0.08 81 1017.2
20260507032703 47 0 0.0 0.0 0.00 0.10 0.08 80 1017.3
20260507031803 48 0 0.0 0.0 0.00 0.10 0.08 79 1017.2
20260507030903 48 0 0.0 0.0 0.00 0.10 0.08 78 1017.1
20260507030003 49 0 0.0 0.0 0.00 0.10 0.08 77 1017.1
20260507025403 49 0 0.0 0.0 0.00 0.10 0.08 76 1017.0
20260507024503 50 0 0.0 0.0 0.00 0.10 0.08 75 1017.1
20260507023603 50 0 0.0 0.0 0.00 0.10 0.08 74 1017.1
20260507022724 51 0 0.0 0.0 0.00 0.10 0.08 73 1017.0
20260507021803 51 0 0.0 0.0 0.00 0.11 0.08 71 1016.9
20260507020903 52 0 0.0 0.0 0.00 0.11 0.08 70 1016.8
20260507020003 52 0 0.0 0.0 0.00 0.12 0.08 68 1016.8
20260507015403 53 0 0.0 0.0 0.00 0.13 0.08 67 1016.6
20260507014503 54 0 0.0 0.0 0.00 0.14 0.08 65 1016.3
20260507013603 54 0 0.0 0.0 0.00 0.15 0.08 62 1016.4
20260507012703 55 0 0.0 0.0 0.00 0.17 0.08 60 1016.2
20260507011803 56 0 0.0 0.0 0.00 0.17 0.08 57 1015.9
20260507010903 56 0 0.0 0.0 0.00 0.18 0.08 56 1015.8
20260507010004 57 0 0.0 0.0 0.00 0.19 0.08 55 1015.6
20260507005424 57 323 0.0 1.0 0.00 0.20 0.08 54 1015.6
20260507004503 58 298 0.0 1.0 0.00 0.23 0.08 54 1015.5
20260507003603 58 317 0.0 1.0 0.00 0.25 0.08 53 1015.5
20260507002703 59 319 0.0 4.0 0.00 0.25 0.08 51 1015.6
20260507001803 59 324 0.0 2.0 0.00 0.25 0.08 51 1015.6
20260507000903 59 315 0.0 1.0 0.00 0.26 0.08 51 1015.5
20260507000004 59 328 0.0 1.0 0.00 0.28 0.08 50 1015.4
20260506235403 59 325 0.0 2.0 0.00 0.31 0.08 50 1015.3
20260506234524 59 325 0.0 3.0 0.00 0.32 0.08 50 1015.3
20260506233603 59 331 0.0 1.0 0.00 0.35 0.08 48 1015.4
20260506232703 60 316 0.0 4.0 0.00 0.39 0.08 47 1015.4
20260506231803 60 320 1.0 4.0 0.00 0.43 0.08 48 1015.4
20260506230903 60 331 1.0 8.0 0.00 0.44 0.08 48 1015.5
20260506230024 61 321 1.0 3.0 0.00 0.45 0.08 46 1015.4
20260506225425 61 322 1.0 5.0 0.00 0.45 0.08 45 1015.5
20260506224503 61 322 1.0 4.0 0.00 0.45 0.08 45 1015.5
20260506223603 60 329 1.0 3.0 0.00 0.45 0.08 46 1015.5
20260506222703 60 328 2.0 6.0 0.00 0.45 0.08 47 1015.6
20260506221803 61 325 1.0 5.0 0.00 0.45 0.08 47 1015.6
20260506220903 61 323 2.0 5.0 0.00 0.45 0.08 45 1015.5
20260506220003 61 327 0.0 3.0 0.00 0.45 0.08 49 1015.5
20260506215403 60 348 0.0 1.0 0.00 0.45 0.08 48 1015.6
20260506214503 60 326 0.0 4.0 0.00 0.45 0.08 46 1015.7
20260506213624 61 329 1.0 5.0 0.00 0.45 0.08 45 1015.7
20260506212703 61 324 0.0 4.0 0.00 0.45 0.08 48 1015.7
20260506211803 60 335 1.0 4.0 0.00 0.45 0.08 49 1015.7
20260506210924 60 329 1.0 3.0 0.00 0.46 0.08 48 1015.7
20260506210003 60 335 1.0 5.0 0.00 0.46 0.08 49 1015.8
20260506205424 60 335 1.0 5.0 0.00 0.46 0.08 50 1015.8
20260506204503 60 342 1.0 6.0 0.00 0.46 0.08 48 1015.9
20260506203603 60 333 3.0 10.0 0.00 0.46 0.08 47 1016.1
20260506202724 60 326 3.0 12.0 0.00 0.46 0.08 47 1016.1
20260506201803 61 326 2.0 8.0 0.00 0.46 0.08 46 1016.2
20260506200903 60 326 2.0 8.0 0.00 0.48 0.08 48 1016.4
20260506200024 60 330 2.0 9.0 0.00 0.50 0.08 45 1016.4